Dewpoint
62 67 71 71 71 70 71 71 71 71 73 72 71 71 71 71 71 69 69 69 69 69 69 69 69 69 69 69 68 68 69 70 70 70 70 70 69 67 67 69 68 63 68
61 64 72 71 71 71 70 71 71 71 72 73 71 70 71 71 71 69 69 68 68 68 68 69 69 70 69 69 68 69 68 69 70 70 69 69 69 69 67 68 69 65 67
61 63 66 71 71 71 71 71 71 71 71 72 72 71 71 71 70 69 69 69 69 70 70 70 70 70 69 70 70 69 69 69 69 69 69 62 63 67 67 69 69 69 67
60 61 64 70 70 70 71 71 71 70 70 71 71 72 71 71 71 70 69 70 70 70 70 70 70 70 70 70 70 69 69 69 69 68 64 59 58 67 68 67 68 67 68
55 57 66 70 69 69 69 69 70 70 71 71 72 71 71 71 70 71 70 71 70 71 71 71 70 70 69 70 69 69 69 69 68 65 60 63 67 69 70 70 70 69 69
49 51 65 68 67 69 69 69 69 70 70 71 71 71 71 70 70 70 71 70 70 71 71 70 70 69 70 69 68 68 69 69 68 61 64 66 67 69 69 68 69 69 69
45 45 52 62 67 68 70 69 69 69 70 70 70 70 70 70 70 70 71 71 70 71 71 70 69 68 68 69 67 67 68 69 63 59 66 67 67 67 67 68 68 68 67
39 41 42 56 59 63 69 70 70 70 69 70 70 70 70 70 70 70 70 70 70 70 70 70 69 68 68 68 67 68 69 67 62 64 68 68 68 67 67 67 67 67 67
40 41 41 41 49 58 60 64 67 69 71 70 71 70 70 70 70 70 69 70 70 70 70 70 70 69 70 69 69 69 68 67 64 65 67 65 68 67 66 65 66 66 66
42 41 42 43 42 44 46 62 63 66 68 69 69 69 68 68 69 69 69 69 69 70 70 71 70 70 70 69 69 69 67 67 65 66 65 66 68 66 65 63 64 64 64
45 44 44 44 44 44 45 51 59 63 66 67 68 67 66 64 64 65 65 67 69 69 69 71 70 70 69 68 69 67 66 62 63 65 64 66 67 65 64 63 63 63 63
45 44 46 47 47 47 45 45 47 49 51 51 59 63 64 62 63 63 64 66 68 68 68 69 70 69 68 63 66 66 63 56 60 61 61 67 67 65 65 64 63 63 63
46 46 46 47 49 50 49 49 47 47 48 49 52 56 63 63 65 66 68 69 68 66 67 66 66 68 66 60 59 61 59 54 54 58 62 67 67 65 65 65 64 64 65
50 49 48 49 50 51 51 49 48 47 48 48 51 52 55 64 64 66 67 68 67 67 65 66 62 61 65 62 57 57 56 54 54 56 62 65 67 66 66 66 65 65 66
45 49 50 51 51 50 52 52 51 51 50 50 51 52 56 60 64 66 67 67 68 67 67 67 63 61 61 61 57 56 55 53 53 54 58 63 65 67 67 66 66 66 66
44 47 51 51 51 51 53 54 54 53 53 53 53 54 55 54 58 64 66 66 67 67 67 68 65 62 60 58 58 56 54 54 53 53 55 61 63 65 67 66 67 67 67
44 48 50 51 52 51 53 54 53 55 54 55 54 54 55 56 56 58 61 65 66 67 66 66 66 65 63 60 58 56 55 53 54 53 56 58 60 64 65 66 67 66 67
47 46 49 48 51 53 54 55 54 54 55 55 55 55 55 56 58 57 60 61 65 66 66 66 66 65 63 62 61 57 55 54 53 53 56 58 59 60 64 65 66 67 67
43 47 50 52 52 52 53 55 56 55 55 55 56 56 55 55 56 57 58 59 59 63 65 64 64 63 62 62 61 60 56 55 54 53 54 56 58 60 62 63 64 65 65
42 45 51 51 50 51 53 54 56 55 56 55 55 56 56 55 55 56 57 59 60 61 62 63 63 63 62 62 61 60 61 58 56 56 55 56 57 59 61 62 63 62 63
46 47 48 49 50 52 53 53 54 54 55 54 55 55 55 54 54 54 55 56 58 59 59 60 62 61 61 61 60 57 57 57 59 58 56 56 58 59 60 62 62 60 60
46 48 46 46 48 51 53 53 53 53 54 54 55 55 55 54 55 54 54 54 54 56 58 58 60 60 60 61 57 56 53 54 57 59 58 57 57 60 59 60 58 58 58
46 45 45 47 50 51 53 54 54 54 53 54 54 54 55 54 55 55 54 54 54 55 54 55 57 60 58 59 58 55 50 51 54 55 56 57 57 59 60 59 56 56 57
44 49 50 51 52 52 54 53 53 52 51 52 52 53 54 53 53 54 54 53 54 54 55 55 56 59 58 56 58 57 54 53 52 48 52 56 56 56 57 58 55 55 56
47 50 52 51 52 53 54 54 53 52 52 53 51 51 51 52 52 52 52 52 53 54 54 54 55 56 58 57 56 56 53 53 53 49 49 50 54 55 57 55 54 54 55
49 50 52 52 52 53 53 53 53 52 52 52 52 52 51 52 53 53 52 53 53 53 53 54 55 56 56 57 56 56 55 52 52 51 50 50 51 52 53 54 53 53 54
Lifted_Index
-3 -3 -4 -4 -4 -4 -3 -3 -3 -3 -4 -4 -4 -3 -3 -3 -3 -2 -2 -1 -1 -1 -1 -1 -1 -1 -1 -0 0 0 -0 -0 -0 -0 -0 0 0 1 0 0 1 1 0
-3 -3 -4 -4 -4 -4 -4 -4 -4 -3 -3 -4 -4 -3 -3 -3 -3 -2 -2 -1 -1 -1 -1 -1 -1 -1 -1 -0 -0 0 -0 -0 0 0 0 1 1 1 0 0 0 1 0
-2 -3 -3 -4 -4 -4 -4 -4 -4 -3 -3 -4 -4 -3 -3 -3 -3 -2 -2 -2 -2 -2 -2 -2 -2 -1 -1 -1 -1 -0 -0 0 1 1 1 2 2 1 0 0 0 0 0
-2 -2 -3 -3 -4 -4 -4 -4 -4 -4 -3 -3 -3 -3 -3 -3 -3 -3 -2 -2 -2 -2 -2 -2 -2 -1 -1 -1 -1 -1 -0 0 1 2 2 2 2 1 -0 -0 -0 -0 -0
-0 -0 -2 -3 -3 -4 -4 -4 -4 -4 -4 -3 -3 -3 -3 -3 -3 -3 -3 -2 -2 -2 -3 -2 -2 -1 -1 -1 -1 -1 -0 0 2 2 2 1 1 -0 -1 -1 -1 -1 -1
2 2 0 -1 -2 -3 -4 -4 -4 -4 -4 -4 -3 -3 -3 -3 -3 -3 -3 -2 -2 -2 -2 -2 -2 -1 -1 -0 -0 -0 -0 1 2 2 1 0 -0 -0 -1 -1 -1 -0 -0
4 4 4 2 0 -2 -3 -4 -3 -3 -3 -3 -3 -3 -3 -3 -3 -3 -2 -2 -2 -2 -2 -2 -2 -1 -1 -0 0 0 0 1 2 2 1 0 0 0 0 -0 -0 -0 -0
6 6 6 6 4 2 -1 -2 -3 -3 -3 -3 -3 -3 -3 -3 -3 -2 -2 -2 -2 -2 -2 -2 -1 -1 -1 -0 -0 0 1 1 2 1 0 0 0 0 1 1 0 0 0
6 7 7 7 6 5 3 1 -1 -2 -3 -3 -3 -3 -2 -3 -3 -2 -2 -2 -2 -2 -2 -2 -2 -1 -1 -1 -0 -0 1 1 1 0 0 0 0 1 1 1 1 1 1
6 7 7 7 7 7 6 4 2 0 -1 -2 -2 -2 -2 -2 -2 -2 -2 -2 -2 -2 -2 -2 -2 -2 -1 -1 -1 0 1 1 1 0 1 1 1 1 2 2 2 2 2
6 6 6 6 6 6 6 6 5 3 1 -0 -1 -1 -1 -1 -1 -2 -2 -2 -2 -2 -2 -2 -2 -2 -1 -1 -0 1 1 1 1 1 1 1 1 1 2 2 3 3 3
6 6 6 6 6 6 6 6 6 5 4 3 1 -1 -1 -1 -1 -1 -2 -2 -2 -2 -2 -2 -2 -2 -1 0 1 1 2 2 2 1 2 1 1 1 1 2 3 3 3
6 6 6 6 6 6 6 6 6 6 5 5 3 1 -1 -1 -1 -2 -2 -2 -2 -2 -2 -1 -1 -1 -0 1 2 2 3 3 3 2 2 2 1 1 1 1 2 2 2
6 6 6 6 6 6 6 6 6 6 6 5 4 3 1 -1 -2 -2 -2 -2 -2 -2 -2 -1 -1 -1 -0 1 2 2 3 3 3 3 3 2 2 1 1 1 1 1 1
7 6 6 6 6 6 6 6 6 5 5 5 4 4 2 1 -1 -2 -2 -2 -2 -2 -2 -2 -1 -1 -0 1 2 2 3 3 4 3 3 3 2 1 1 0 1 1 1
7 7 6 6 6 6 5 5 5 5 5 5 4 4 3 2 1 -0 -1 -2 -2 -2 -2 -2 -1 -1 -1 -0 1 2 3 3 4 4 3 3 3 2 1 0 0 0 0
6 6 6 6 6 5 5 5 5 5 4 4 4 4 3 3 2 1 0 -1 -2 -2 -2 -2 -2 -1 -1 -0 -0 1 2 3 4 4 3 3 3 2 1 1 0 0 -0
6 6 5 5 5 5 5 4 4 4 4 4 4 3 3 3 3 3 2 1 -0 -1 -1 -2 -2 -1 -1 -0 -0 0 1 3 3 4 3 3 3 2 2 1 1 0 0
6 5 5 5 5 5 4 4 4 3 3 3 3 3 3 3 3 3 3 2 1 0 -0 -1 -1 -1 -1 -0 0 1 1 2 3 3 3 3 3 2 2 2 1 1 1
6 5 4 4 5 4 4 4 3 3 3 3 3 3 3 4 4 4 3 3 2 1 1 0 -0 -0 -0 -0 0 1 2 2 3 3 3 3 3 2 2 2 2 2 2
5 4 4 5 5 4 4 3 3 3 3 3 3 3 4 4 4 4 4 4 3 3 2 1 1 0 0 0 0 1 1 2 3 3 3 3 3 2 2 2 2 2 3
4 4 4 4 4 4 3 3 3 3 3 3 3 3 3 4 4 5 5 4 4 4 3 2 2 1 1 1 1 1 1 2 3 3 3 3 3 2 2 2 3 3 3
4 4 4 4 3 3 3 3 3 3 3 2 2 3 3 4 4 5 5 5 5 4 4 4 3 2 2 1 1 1 1 2 3 3 3 3 3 3 3 3 3 3 4
4 3 3 3 2 2 2 2 3 2 2 2 2 2 3 3 4 5 6 6 5 5 5 4 3 3 2 2 2 2 2 2 2 3 3 4 4 3 3 4 4 4 4
3 2 2 1 1 1 1 1 2 2 2 1 1 2 3 3 4 5 6 6 6 6 5 5 4 3 3 3 3 3 2 2 2 2 3 3 4 4 4 4 4 4 4
2 2 1 1 1 0 -0 0 1 1 1 1 1 2 3 3 4 5 6 6 6 6 6 5 4 4 3 3 3 3 3 3 3 2 2 3 4 4 4 4 4 4 4